SCP
0 0 0 0 0 0 0 0 0 0 0 0 0 0 0 0 0 0 0 0 0 0 0 -0 -0 -0 -0 -0 -0 -0 -0 -0 -0 -0 -0 -0 -0 -0 -0 -0 -0 -0 0 0 0 0 0
0 0 0 0 0 0 0 0 0 0 0 0 0 0 0 0 0 0 0 0 0 0 0 -0 -0 -0 0 0 -0 -0 -0 -0 -0 -0 -0 -0 -0 -0 -0 0 0 0 0 0 0 0 0
0 0 0 0 0 0 0 0 0 0 0 0 0 0 0 0 0 0 0 0 0 0 0 -0 -0 -0 -0 -0 -0 -0 -0 -0 -0 -0 -0 -0 0 0 0 0 0 0 0 0 0 0 0
0 0 0 0 0 0 0 0 0 0 0 0 0 0 0 0 0 0 0 0 0 0 0 0 -0 0 0 -0 -0 -0 -0 0 -0 -0 -0 -0 0 0 0 0 0 0 0 0 0 0 0
0 0 0 0 0 0 0 0 0 0 0 0 0 0 0 0 0 0 0 0 0 0 0 0 0 0 -0 0 -0 -0 -0 -0 -0 0 -0 0 0 0 0 0 0 0 0 0 0 0 0
0 0 0 0 0 0 0 0 0 0 0 0 0 0 0 0 0 0 0 0 -0 0 0 0 0 0 0 -0 -0 -0 -0 -0 -0 0 0 0 0 0 0 0 0 0 0 0 0 0 0
0 0 0 0 0 0 0 0 0 0 0 0 0 0 0 0 0 0 0 0 0 0 0 -0 0 -0 -0 -0 0 -0 -0 0 0 0 0 0 0 0 0 0 0 0 0 0 0 0 0
0 0 0 0 0 0 0 0 0 0 0 0 0 0 0 0 0 0 0 -0 -0 -0 0 0 -0 -0 0 0 -0 -0 -0 0 0 0 0 0 0 0 0 0 0 0 0 0 0 0 0
0 0 0 0 0 0 0 0 0 0 0 0 0 0 0 0 0 0 -0 -0 0 0 0 0 0 0 -0 0 0 -0 -0 0 0 0 0 0 0 0 0 0 0 0 0 0 0 0 0
0 0 0 0 0 0 0 0 0 0 0 0 0 0 0 0 0 -0 -0 -0 0 -0 0 0 -0 -0 0 0 0 -0 0 0 0 0 0 0 0 0 0 0 0 0 0 0 0 0 0
0 0 0 0 0 0 0 0 0 0 0 0 0 0 0 0 0 -0 -0 0 0 0 0 0 0 0 0 0 0 0 -0 0 0 0 0 0 0 0 0 0 0 0 0 0 0 0 0
0 0 0 0 0 0 0 0 0 0 0 0 0 0 0 0 0 0 0 0 0 0 0 0 0 0 0 0 0 0 -0 0 0 0 0 0 0 0 0 0 0 0 0 0 0 0 0
0 0 0 0 0 0 0 0 0 0 0 0 0 0 0 0 0 0 -0 -0 0 -0 0 0 0 0 0 0 0 0 0 0 0 0 0 0 0 0 0 0 0 0 -0 0 0 0 0
0 0 0 0 0 0 0 0 0 0 0 0 0 0 0 0 0 0 -0 0 -0 -0 -0 0 0 0 0 -0 0 0 0 0 0 0 0 0 0 0 0 0 0 0 0 0 0 0 0
0 0 0 0 0 0 0 0 0 0 0 0 0 0 0 0 0 0 0 -0 -0 0 -0 -0 0 0 0 0 0 0 0 0 0 0 0 0 0 0 0 0 0 0 0 0 0 0 0
0 0 0 0 0 0 0 0 0 0 0 0 0 0 0 0 0 0 0 0 0 0 -0 -0 -0 -0 0 0 0 0 0 0 0 0 0 0 0 0 0 0 0 0 0 0 0 0 0
0 0 0 0 0 0 0 0 0 0 0 0 0 0 0 0 0 0 0 0 0 0 0 -0 -0 0 0 0 0 0 0 0 0 0 0 0 0 0 0 0 0 0 0 0 0 0 0
0 0 0 0 0 0 0 0 0 0 0 0 0 0 0 0 0 0 0 0 0 0 0 0 0 0 0 0 0 0 0 0 0 0 0 0 0 0 0 0 0 0 0 0 0 0 0
0 0 0 0 0 0 0 0 0 0 0 0 0 0 0 0 0 0 0 0 0 0 0 0 0 0 0 0 0 0 0 0 0 0 0 0 0 0 0 0 0 0 0 0 0 0 0
0 0 0 0 0 0 0 0 0 0 0 0 0 0 0 0 0 0 0 0 0 0 0 0 0 0 0 0 0 0 0 0 0 0 0 0 0 0 0 0 0 0 0 0 0 0 0
0 0 0 0 0 0 0 0 0 0 0 0 0 0 0 0 0 0 0 0 0 0 0 0 0 0 0 0 0 0 0 0 0 0 0 0 0 0 0 0 0 0 0 0 0 0 0
0 0 0 0 0 0 0 0 0 0 0 0 0 0 0 0 0 0 0 0 0 0 0 0 0 0 0 0 0 0 0 0 0 0 0 0 0 0 0 0 0 0 0 0 0 0 0
0 0 0 0 0 0 0 0 0 0 0 0 0 0 0 0 0 0 0 0 0 0 0 0 0 0 0 0 0 0 0 0 0 0 0 0 0 0 0 0 0 0 0 0 0 0 0
0 0 0 0 0 0 0 0 0 0 0 0 0 0 0 0 0 0 0 0 0 0 0 0 0 0 0 0 0 0 0 0 0 0 0 0 0 0 0 0 0 0 0 0 0 0 0
0 0 0 0 0 0 0 0 0 0 0 0 0 0 0 0 0 0 0 0 0 0 0 0 0 0 0 0 0 0 0 0 0 0 0 0 0 0 0 0 0 0 0 0 0 0 0
0 0 0 0 0 0 0 0 0 0 0 0 0 0 0 0 0 0 0 0 0 0 0 0 0 0 0 0 0 0 0 0 0 0 0 0 0 0 0 0 0 0 0 0 0 0 0
0 0 0 0 0 0 0 0 0 0 0 0 0 0 0 0 0 0 0 0 0 0 0 0 0 0 0 0 0 0 0 0 0 0 0 0 0 0 0 0 0 0 0 0 0 0 0
0 0 0 0 0 0 0 0 0 0 0 0 0 0 0 0 0 0 0 0 0 0 0 0 0 0 0 0 0 0 0 0 0 0 0 0 0 0 0 0 0 0 0 0 0 0 0
0 0 0 0 0 0 0 0 0 0 0 0 0 0 0 0 0 0 0 0 0 0 0 0 0 0 0 0 0 0 0 0 0 0 0 0 0 0 0 0 0 0 0 0 0 0 0
Wind_Speed_500mb
5 4 5 6 10 12 13 14 14 15 17 17 16 16 19 21 23 26 26 22 16 11 15 14 13 20 19 18 15 23 26 28 22 14 11 10 8 7 10 29 36 32 30 33 34 43 44
5 4 4 5 9 11 12 13 13 13 15 15 16 17 20 24 27 28 27 20 16 25 27 19 17 20 10 25 18 21 25 24 19 19 21 24 23 21 19 14 15 26 34 29 29 27 19
7 5 4 4 8 10 11 12 11 11 13 13 16 19 24 28 27 23 19 20 25 9 8 11 23 23 32 19 22 14 20 33 30 19 17 23 17 7 11 21 30 38 25 20 11 11 14
9 6 5 4 8 10 10 10 9 9 11 12 16 20 26 25 24 22 25 19 11 8 9 12 21 19 13 27 21 11 9 9 23 25 24 23 21 26 14 14 12 11 9 10 17 17 7
10 7 5 4 7 8 7 8 7 7 9 12 16 22 23 21 18 16 15 10 13 14 13 12 15 4 9 22 29 26 21 11 9 13 19 21 24 26 6 9 13 6 22 26 7 20 16
10 8 6 3 6 7 6 5 5 5 7 12 17 22 19 16 13 15 17 13 12 3 5 14 12 9 20 23 38 37 16 21 10 6 5 13 13 18 28 25 12 25 25 25 18 14 14
9 9 6 3 4 5 4 2 2 4 6 11 17 21 18 14 20 28 13 9 2 9 48 24 17 15 16 21 24 37 21 19 5 13 7 25 23 23 25 23 12 18 20 23 34 12 22
11 10 6 3 3 3 3 1 2 4 5 10 14 19 21 18 18 4 8 2 4 21 24 23 24 21 19 24 10 50 35 9 31 20 4 14 30 20 9 24 25 14 20 28 12 6 14
11 11 7 4 2 1 2 2 3 4 5 9 12 17 21 17 11 1 5 27 27 17 3 13 19 21 20 20 23 39 33 14 20 30 38 34 17 11 14 23 33 8 25 32 36 35 5
14 13 9 4 1 1 2 3 4 5 7 9 10 15 18 15 5 7 14 11 5 5 9 14 18 19 26 2 11 31 30 13 14 19 15 18 23 19 17 21 32 14 34 33 29 17 9
18 15 11 5 2 1 2 3 4 6 8 9 9 13 17 23 8 9 15 6 6 3 8 12 11 14 20 17 7 42 33 28 28 29 7 10 18 30 23 20 28 15 50 39 17 15 11
21 19 13 8 4 2 2 2 4 7 8 9 12 12 10 19 15 16 19 8 12 10 6 6 8 16 1 29 12 15 27 19 9 14 35 21 14 18 22 18 11 47 45 12 7 9 6
24 22 16 11 7 5 4 1 5 8 9 11 11 12 8 13 12 21 15 8 11 6 4 7 7 9 9 18 16 18 17 33 16 12 17 15 31 9 46 17 1 44 40 9 9 11 12
28 26 20 15 10 7 5 3 4 8 9 12 13 10 11 11 22 16 6 10 7 6 8 3 4 3 9 17 12 17 5 13 29 23 10 14 3 28 34 29 16 26 26 11 13 19 23
32 29 24 19 13 8 6 5 4 10 13 16 14 12 11 16 21 10 7 7 11 8 5 1 4 4 8 7 8 6 16 13 19 28 17 17 9 8 18 21 33 17 14 9 12 14 13
35 34 28 23 17 11 5 6 7 15 14 14 11 8 9 17 17 8 5 9 5 7 4 5 6 8 8 13 3 7 14 11 11 18 14 13 5 9 6 7 26 16 16 3 7 17 17
38 37 33 26 20 15 8 4 8 19 13 9 8 6 7 19 15 0 1 9 9 7 6 9 6 4 9 9 11 9 12 5 14 14 12 13 5 8 4 17 20 14 12 10 5 4 8
41 42 38 31 24 18 13 7 6 19 19 7 1 6 13 20 6 6 7 8 9 8 6 6 6 11 8 8 8 7 8 12 14 13 9 13 8 7 8 10 11 20 14 10 6 12 9
45 46 42 35 28 21 16 12 6 16 24 11 2 5 10 16 6 7 11 10 8 7 6 4 5 8 4 6 3 7 9 6 12 12 11 13 4 5 11 9 8 7 9 5 2 6 6
47 47 43 38 32 25 20 16 12 13 28 15 3 4 5 4 5 16 17 13 10 7 7 9 8 4 6 7 11 7 7 3 6 8 10 7 5 8 8 8 6 5 2 6 9 8 20
52 54 52 46 36 29 23 21 17 14 29 19 4 2 7 6 7 18 11 12 17 8 6 4 6 5 5 5 6 7 7 8 4 4 5 6 2 4 6 4 3 7 5 7 6 16 11
54 55 52 47 41 33 27 24 23 19 27 25 6 10 11 9 17 25 4 11 17 12 3 6 7 8 6 7 9 5 6 1 6 4 3 5 1 5 4 4 9 10 8 12 15 16 24
57 59 56 50 44 37 31 27 26 22 31 13 15 14 6 7 14 8 6 16 18 25 13 12 23 21 21 17 20 21 20 16 11 3 3 5 3 5 3 3 6 10 5 6 19 20 20
60 60 59 54 48 41 35 32 31 30 34 28 20 17 6 6 8 5 15 14 27 6 15 13 8 9 16 30 30 26 26 24 21 18 10 3 5 1 6 4 4 9 4 9 19 23 9
63 62 62 57 51 44 39 36 33 34 35 46 14 18 9 9 17 23 30 29 34 30 26 22 13 15 37 12 5 7 6 6 9 11 12 11 2 2 5 11 4 7 2 9 13 21 3
66 63 65 60 53 47 41 38 38 37 39 44 35 25 9 34 5 24 27 27 15 12 12 14 26 19 6 4 3 3 4 3 2 6 2 3 3 3 3 5 6 7 5 6 8 4 19
68 64 68 63 55 48 42 40 39 38 42 48 46 30 15 22 14 22 9 15 13 13 12 17 18 7 3 3 2 2 3 3 3 5 2 1 3 4 2 5 2 9 5 1 9 13 35
71 66 71 66 56 49 42 38 37 37 46 53 48 40 26 20 23 13 21 13 14 15 9 28 17 6 5 3 2 4 2 3 4 2 3 4 5 2 1 4 7 16 7 4 11 22 30
72 70 74 68 58 50 43 37 35 32 46 53 46 43 32 22 21 24 23 25 20 23 18 30 3 12 15 4 2 5 4 4 4 2 5 4 4 1 9 5 8 7 3 6 7 20 27
Wind_Direction_500mb
285 324 348 10 23 20 10 20 26 24 33 53 56 75 91 104 114 119 129 127 121 76 57 82 107 94 74 76 21 16 15 15 17 22 26 16 23 23 79 93 87 98 102 88 83 84 85
258 283 328 2 17 8 3 21 25 27 41 63 71 92 102 110 118 120 121 122 111 104 78 78 106 65 85 73 20 26 30 21 27 46 54 65 57 74 74 29 22 104 105 101 87 85 93
250 260 294 356 4 357 357 18 25 31 51 75 89 103 112 116 116 120 120 116 130 105 53 87 103 100 65 46 16 29 32 27 46 67 80 61 35 85 90 91 110 124 113 119 64 100 114
236 245 270 348 350 349 354 11 24 37 62 93 109 116 123 119 113 107 125 120 99 107 114 50 81 55 67 21 18 6 3 37 49 56 72 81 72 69 64 110 167 245 245 259 63 20 101
228 230 256 333 338 342 353 5 25 44 75 111 125 134 130 124 117 118 131 110 85 91 75 46 34 65 53 7 13 17 16 15 12 22 53 58 73 66 30 266 219 185 341 345 110 50 6
221 227 245 320 331 335 342 2 37 57 94 129 141 150 140 131 126 115 108 85 66 83 49 26 32 116 29 354 13 1 6 31 5 1 35 50 63 59 36 20 19 333 332 330 329 18 350
232 227 250 294 326 329 329 351 60 85 117 139 155 165 154 137 127 126 99 326 263 73 57 66 42 68 21 354 25 13 27 25 15 51 78 51 63 42 33 24 346 307 301 320 345 63 324
240 217 240 268 318 322 303 239 113 110 138 141 162 175 178 160 159 149 351 267 113 136 81 52 52 44 33 17 18 14 43 55 45 47 147 116 53 28 22 13 335 333 347 345 318 308 321
227 218 217 248 295 288 253 191 143 133 148 146 163 180 180 180 187 146 86 121 124 125 137 43 37 25 13 21 36 359 21 21 27 47 52 62 25 6 13 16 354 59 1 338 314 315 143
214 215 205 230 249 215 219 190 155 144 146 155 168 184 183 175 137 155 156 127 122 226 211 21 8 14 355 24 54 18 17 17 49 35 59 59 24 15 20 21 354 308 354 321 322 320 348
212 207 201 200 216 182 183 184 166 144 143 159 168 180 188 180 203 189 197 192 342 283 241 13 18 1 17 62 338 12 19 58 57 26 252 52 31 18 26 1 352 325 316 289 284 286 307
213 206 200 185 183 135 134 171 169 142 141 151 177 176 190 208 247 203 187 247 317 231 84 72 17 356 85 35 37 9 30 47 68 66 74 74 65 35 356 315 338 333 325 82 194 257 238
213 210 197 185 171 134 101 118 175 144 134 146 159 191 193 183 202 166 174 298 252 342 180 63 12 6 58 25 41 30 52 47 32 333 32 129 51 88 13 356 194 2 357 353 346 339 4
215 209 201 188 172 145 101 64 181 150 123 138 166 168 172 174 159 159 174 244 281 38 37 84 334 6 56 355 52 27 54 49 29 355 319 346 264 21 19 32 322 357 12 31 319 341 315
214 209 205 193 179 162 113 74 168 159 127 122 135 151 163 166 170 161 270 255 27 43 27 315 241 275 99 64 349 83 54 39 22 12 8 348 82 117 33 17 14 346 22 337 289 286 297
212 210 207 199 185 179 147 94 151 162 141 124 111 116 141 160 163 148 272 74 85 53 353 283 354 352 20 18 342 41 35 14 11 18 348 20 277 34 35 263 52 47 353 6 325 346 320
211 212 208 205 197 188 184 133 152 179 161 132 110 151 159 140 125 43 23 71 111 73 28 354 43 78 56 29 20 47 33 71 8 353 347 344 272 101 245 32 10 11 25 10 273 14 310
214 211 212 207 206 199 192 194 163 183 188 176 217 197 168 146 154 46 96 95 112 109 67 61 62 47 49 40 52 75 74 40 3 346 6 14 319 14 51 101 47 42 27 3 1 338 308
215 211 213 210 211 209 203 200 196 186 187 168 213 82 160 166 160 108 124 99 82 133 59 79 88 27 59 80 85 62 77 40 17 16 13 359 54 293 176 189 186 41 24 17 225 243 271
211 214 214 214 213 212 213 206 199 195 185 181 199 145 83 71 80 144 142 137 116 69 88 74 106 107 137 95 42 120 105 100 28 39 2 312 3 9 340 354 337 309 338 332 324 286 324
216 209 209 213 213 214 216 215 205 201 193 186 192 108 136 146 144 141 113 142 137 128 87 117 106 62 62 105 105 99 102 139 99 3 360 335 319 5 24 42 289 319 271 261 247 308 295
218 213 211 211 215 217 219 218 214 199 193 192 170 139 96 74 123 126 126 160 143 120 359 117 143 99 50 79 34 126 132 305 43 109 26 2 354 299 230 270 293 263 238 278 294 305 304
219 213 211 212 214 217 218 218 217 208 192 194 208 159 146 135 162 185 132 147 151 130 60 70 125 110 82 78 89 85 83 84 90 24 71 344 336 302 2 326 301 233 236 284 318 327 317
220 215 211 211 213 217 218 218 219 213 201 199 202 170 143 131 158 108 135 119 127 110 128 107 96 109 124 121 102 91 89 85 75 61 31 38 24 350 310 256 270 90 62 336 312 302 308
218 216 211 211 213 215 218 218 218 219 212 208 210 182 155 111 125 122 129 123 112 93 90 84 43 116 136 132 131 144 138 170 78 47 45 22 39 322 299 304 63 156 205 348 342 311 316
217 215 210 210 213 215 216 217 217 219 218 213 216 208 178 123 170 143 136 156 140 115 111 85 116 125 141 166 123 43 15 8 130 168 78 30 55 279 15 314 307 70 130 321 298 222 340
216 212 210 208 210 215 214 216 217 219 219 210 211 207 183 109 140 153 147 168 142 131 99 137 164 185 135 169 158 41 94 28 296 279 101 203 299 273 309 282 225 133 134 157 300 355 334
215 210 208 208 207 212 211 213 216 217 213 203 206 204 198 121 134 145 144 128 139 152 144 147 131 176 156 120 163 107 227 107 249 77 275 264 193 177 109 261 275 153 161 270 343 322 328
212 207 205 206 204 207 205 207 210 210 203 198 200 193 195 143 132 135 127 141 151 140 121 158 107 134 167 122 195 105 158 161 356 263 193 245 242 289 218 351 102 159 300 318 297 315 324
Wind_Speed_850mb
5 4 5 6 10 12 13 14 14 15 17 17 16 16 19 21 23 26 26 22 16 11 15 14 13 20 19 18 15 23 26 28 22 14 11 10 8 7 10 29 36 32 30 33 34 43 44
5 4 4 5 9 11 12 13 13 13 15 15 16 17 20 24 27 28 27 20 16 25 27 19 17 20 10 25 18 21 25 24 19 19 21 24 23 21 19 14 15 26 34 29 29 27 19
7 5 4 4 8 10 11 12 11 11 13 13 16 19 24 28 27 23 19 20 25 9 8 11 23 23 32 19 22 14 20 33 30 19 17 23 17 7 11 21 30 38 25 20 11 11 14
9 6 5 4 8 10 10 10 9 9 11 12 16 20 26 25 24 22 25 19 11 8 9 12 21 19 13 27 21 11 9 9 23 25 24 23 21 26 14 14 12 11 9 10 17 17 7
10 7 5 4 7 8 7 8 7 7 9 12 16 22 23 21 18 16 15 10 13 14 13 12 15 4 9 22 29 26 21 11 9 13 19 21 24 26 6 9 13 6 22 26 7 20 16
10 8 6 3 6 7 6 5 5 5 7 12 17 22 19 16 13 15 17 13 12 3 5 14 12 9 20 23 38 37 16 21 10 6 5 13 13 18 28 25 12 25 25 25 18 14 14
9 9 6 3 4 5 4 2 2 4 6 11 17 21 18 14 20 28 13 9 2 9 48 24 17 15 16 21 24 37 21 19 5 13 7 25 23 23 25 23 12 18 20 23 34 12 22
11 10 6 3 3 3 3 1 2 4 5 10 14 19 21 18 18 4 8 2 4 21 24 23 24 21 19 24 10 50 35 9 31 20 4 14 30 20 9 24 25 14 20 28 12 6 14
11 11 7 4 2 1 2 2 3 4 5 9 12 17 21 17 11 1 5 27 27 17 3 13 19 21 20 20 23 39 33 14 20 30 38 34 17 11 14 23 33 8 25 32 36 35 5
14 13 9 4 1 1 2 3 4 5 7 9 10 15 18 15 5 7 14 11 5 5 9 14 18 19 26 2 11 31 30 13 14 19 15 18 23 19 17 21 32 14 34 33 29 17 9
18 15 11 5 2 1 2 3 4 6 8 9 9 13 17 23 8 9 15 6 6 3 8 12 11 14 20 17 7 42 33 28 28 29 7 10 18 30 23 20 28 15 50 39 17 15 11
21 19 13 8 4 2 2 2 4 7 8 9 12 12 10 19 15 16 19 8 12 10 6 6 8 16 1 29 12 15 27 19 9 14 35 21 14 18 22 18 11 47 45 12 7 9 6
24 22 16 11 7 5 4 1 5 8 9 11 11 12 8 13 12 21 15 8 11 6 4 7 7 9 9 18 16 18 17 33 16 12 17 15 31 9 46 17 1 44 40 9 9 11 12
28 26 20 15 10 7 5 3 4 8 9 12 13 10 11 11 22 16 6 10 7 6 8 3 4 3 9 17 12 17 5 13 29 23 10 14 3 28 34 29 16 26 26 11 13 19 23
32 29 24 19 13 8 6 5 4 10 13 16 14 12 11 16 21 10 7 7 11 8 5 1 4 4 8 7 8 6 16 13 19 28 17 17 9 8 18 21 33 17 14 9 12 14 13
35 34 28 23 17 11 5 6 7 15 14 14 11 8 9 17 17 8 5 9 5 7 4 5 6 8 8 13 3 7 14 11 11 18 14 13 5 9 6 7 26 16 16 3 7 17 17
38 37 33 26 20 15 8 4 8 19 13 9 8 6 7 19 15 0 1 9 9 7 6 9 6 4 9 9 11 9 12 5 14 14 12 13 5 8 4 17 20 14 12 10 5 4 8
41 42 38 31 24 18 13 7 6 19 19 7 1 6 13 20 6 6 7 8 9 8 6 6 6 11 8 8 8 7 8 12 14 13 9 13 8 7 8 10 11 20 14 10 6 12 9
45 46 42 35 28 21 16 12 6 16 24 11 2 5 10 16 6 7 11 10 8 7 6 4 5 8 4 6 3 7 9 6 12 12 11 13 4 5 11 9 8 7 9 5 2 6 6
47 47 43 38 32 25 20 16 12 13 28 15 3 4 5 4 5 16 17 13 10 7 7 9 8 4 6 7 11 7 7 3 6 8 10 7 5 8 8 8 6 5 2 6 9 8 20
52 54 52 46 36 29 23 21 17 14 29 19 4 2 7 6 7 18 11 12 17 8 6 4 6 5 5 5 6 7 7 8 4 4 5 6 2 4 6 4 3 7 5 7 6 16 11
54 55 52 47 41 33 27 24 23 19 27 25 6 10 11 9 17 25 4 11 17 12 3 6 7 8 6 7 9 5 6 1 6 4 3 5 1 5 4 4 9 10 8 12 15 16 24
57 59 56 50 44 37 31 27 26 22 31 13 15 14 6 7 14 8 6 16 18 25 13 12 23 21 21 17 20 21 20 16 11 3 3 5 3 5 3 3 6 10 5 6 19 20 20
60 60 59 54 48 41 35 32 31 30 34 28 20 17 6 6 8 5 15 14 27 6 15 13 8 9 16 30 30 26 26 24 21 18 10 3 5 1 6 4 4 9 4 9 19 23 9
63 62 62 57 51 44 39 36 33 34 35 46 14 18 9 9 17 23 30 29 34 30 26 22 13 15 37 12 5 7 6 6 9 11 12 11 2 2 5 11 4 7 2 9 13 21 3
66 63 65 60 53 47 41 38 38 37 39 44 35 25 9 34 5 24 27 27 15 12 12 14 26 19 6 4 3 3 4 3 2 6 2 3 3 3 3 5 6 7 5 6 8 4 19
68 64 68 63 55 48 42 40 39 38 42 48 46 30 15 22 14 22 9 15 13 13 12 17 18 7 3 3 2 2 3 3 3 5 2 1 3 4 2 5 2 9 5 1 9 13 35
71 66 71 66 56 49 42 38 37 37 46 53 48 40 26 20 23 13 21 13 14 15 9 28 17 6 5 3 2 4 2 3 4 2 3 4 5 2 1 4 7 16 7 4 11 22 30
72 70 74 68 58 50 43 37 35 32 46 53 46 43 32 22 21 24 23 25 20 23 18 30 3 12 15 4 2 5 4 4 4 2 5 4 4 1 9 5 8 7 3 6 7 20 27
Wind_Direction_850mb
285 324 348 10 23 20 10 20 26 24 33 53 56 75 91 104 114 119 129 127 121 76 57 82 107 94 74 76 21 16 15 15 17 22 26 16 23 23 79 93 87 98 102 88 83 84 85
258 283 328 2 17 8 3 21 25 27 41 63 71 92 102 110 118 120 121 122 111 104 78 78 106 65 85 73 20 26 30 21 27 46 54 65 57 74 74 29 22 104 105 101 87 85 93
250 260 294 356 4 357 357 18 25 31 51 75 89 103 112 116 116 120 120 116 130 105 53 87 103 100 65 46 16 29 32 27 46 67 80 61 35 85 90 91 110 124 113 119 64 100 114
236 245 270 348 350 349 354 11 24 37 62 93 109 116 123 119 113 107 125 120 99 107 114 50 81 55 67 21 18 6 3 37 49 56 72 81 72 69 64 110 167 245 245 259 63 20 101
228 230 256 333 338 342 353 5 25 44 75 111 125 134 130 124 117 118 131 110 85 91 75 46 34 65 53 7 13 17 16 15 12 22 53 58 73 66 30 266 219 185 341 345 110 50 6
221 227 245 320 331 335 342 2 37 57 94 129 141 150 140 131 126 115 108 85 66 83 49 26 32 116 29 354 13 1 6 31 5 1 35 50 63 59 36 20 19 333 332 330 329 18 350
232 227 250 294 326 329 329 351 60 85 117 139 155 165 154 137 127 126 99 326 263 73 57 66 42 68 21 354 25 13 27 25 15 51 78 51 63 42 33 24 346 307 301 320 345 63 324
240 217 240 268 318 322 303 239 113 110 138 141 162 175 178 160 159 149 351 267 113 136 81 52 52 44 33 17 18 14 43 55 45 47 147 116 53 28 22 13 335 333 347 345 318 308 321
227 218 217 248 295 288 253 191 143 133 148 146 163 180 180 180 187 146 86 121 124 125 137 43 37 25 13 21 36 359 21 21 27 47 52 62 25 6 13 16 354 59 1 338 314 315 143
214 215 205 230 249 215 219 190 155 144 146 155 168 184 183 175 137 155 156 127 122 226 211 21 8 14 355 24 54 18 17 17 49 35 59 59 24 15 20 21 354 308 354 321 322 320 348
212 207 201 200 216 182 183 184 166 144 143 159 168 180 188 180 203 189 197 192 342 283 241 13 18 1 17 62 338 12 19 58 57 26 252 52 31 18 26 1 352 325 316 289 284 286 307
213 206 200 185 183 135 134 171 169 142 141 151 177 176 190 208 247 203 187 247 317 231 84 72 17 356 85 35 37 9 30 47 68 66 74 74 65 35 356 315 338 333 325 82 194 257 238
213 210 197 185 171 134 101 118 175 144 134 146 159 191 193 183 202 166 174 298 252 342 180 63 12 6 58 25 41 30 52 47 32 333 32 129 51 88 13 356 194 2 357 353 346 339 4
215 209 201 188 172 145 101 64 181 150 123 138 166 168 172 174 159 159 174 244 281 38 37 84 334 6 56 355 52 27 54 49 29 355 319 346 264 21 19 32 322 357 12 31 319 341 315
214 209 205 193 179 162 113 74 168 159 127 122 135 151 163 166 170 161 270 255 27 43 27 315 241 275 99 64 349 83 54 39 22 12 8 348 82 117 33 17 14 346 22 337 289 286 297
212 210 207 199 185 179 147 94 151 162 141 124 111 116 141 160 163 148 272 74 85 53 353 283 354 352 20 18 342 41 35 14 11 18 348 20 277 34 35 263 52 47 353 6 325 346 320
211 212 208 205 197 188 184 133 152 179 161 132 110 151 159 140 125 43 23 71 111 73 28 354 43 78 56 29 20 47 33 71 8 353 347 344 272 101 245 32 10 11 25 10 273 14 310
214 211 212 207 206 199 192 194 163 183 188 176 217 197 168 146 154 46 96 95 112 109 67 61 62 47 49 40 52 75 74 40 3 346 6 14 319 14 51 101 47 42 27 3 1 338 308
215 211 213 210 211 209 203 200 196 186 187 168 213 82 160 166 160 108 124 99 82 133 59 79 88 27 59 80 85 62 77 40 17 16 13 359 54 293 176 189 186 41 24 17 225 243 271
211 214 214 214 213 212 213 206 199 195 185 181 199 145 83 71 80 144 142 137 116 69 88 74 106 107 137 95 42 120 105 100 28 39 2 312 3 9 340 354 337 309 338 332 324 286 324
216 209 209 213 213 214 216 215 205 201 193 186 192 108 136 146 144 141 113 142 137 128 87 117 106 62 62 105 105 99 102 139 99 3 360 335 319 5 24 42 289 319 271 261 247 308 295
218 213 211 211 215 217 219 218 214 199 193 192 170 139 96 74 123 126 126 160 143 120 359 117 143 99 50 79 34 126 132 305 43 109 26 2 354 299 230 270 293 263 238 278 294 305 304
219 213 211 212 214 217 218 218 217 208 192 194 208 159 146 135 162 185 132 147 151 130 60 70 125 110 82 78 89 85 83 84 90 24 71 344 336 302 2 326 301 233 236 284 318 327 317
220 215 211 211 213 217 218 218 219 213 201 199 202 170 143 131 158 108 135 119 127 110 128 107 96 109 124 121 102 91 89 85 75 61 31 38 24 350 310 256 270 90 62 336 312 302 308
218 216 211 211 213 215 218 218 218 219 212 208 210 182 155 111 125 122 129 123 112 93 90 84 43 116 136 132 131 144 138 170 78 47 45 22 39 322 299 304 63 156 205 348 342 311 316
217 215 210 210 213 215 216 217 217 219 218 213 216 208 178 123 170 143 136 156 140 115 111 85 116 125 141 166 123 43 15 8 130 168 78 30 55 279 15 314 307 70 130 321 298 222 340
216 212 210 208 210 215 214 216 217 219 219 210 211 207 183 109 140 153 147 168 142 131 99 137 164 185 135 169 158 41 94 28 296 279 101 203 299 273 309 282 225 133 134 157 300 355 334
215 210 208 208 207 212 211 213 216 217 213 203 206 204 198 121 134 145 144 128 139 152 144 147 131 176 156 120 163 107 227 107 249 77 275 264 193 177 109 261 275 153 161 270 343 322 328
212 207 205 206 204 207 205 207 210 210 203 198 200 193 195 143 132 135 127 141 151 140 121 158 107 134 167 122 195 105 158 161 356 263 193 245 242 289 218 351 102 159 300 318 297 315 324